Location: *
(24.1434°N, 56.8729°E)
Time: 06:01:36
(UTC+00:00)

USA 186 - Pass Details

Date: 09 April 2020
Orbit: 263 x 447 km, 96.9° (Epoch: 21 May)

Event Time Altitude Azimuth Distance (km) Brightness Sun altitude
Exits shadow 16:27:21 31° 278° (W) 791 3.6 -26.1°
Drops below altitude 10° 16:29:56 10° 327° (NNW) 1,526 5.3 -26.7°
Sets 16:32:02 0° 337° (NNW) 2,367 6.2 -27.1°
